This demonstration page uses our WeatherBlox Daily Observations layout. Learn more.

Left ArrowRight Arrow

Hourly Observations for May 11, 2019

Temp ( °F °C ) Dew Point ( °F °C ) Humidity (%) Winds ( mph kmh ) Pressure ( in mb ) Visibility ( mi km ) Precip ( " mm )
12:16 am 00:16 Clear 41 5 41 5 100 100 N N/A 30.19 1022 10 16.0934 N/A
12:35 am 00:35 Clear 41 5 41 5 100 100 N N/A 30.19 1022 10 16.0934 N/A
12:55 am 00:55 Clear 43 6 43 6 100 100 NNE 3 6 30.18 1022 10 16.0934 N/A
1:15 am 01:15 Clear 43 6 43 6 100 100 NE 5 7 30.18 1022 10 16.0934 N/A
1:35 am 01:35 Clear 43 6 43 6 100 100 N N/A 30.18 1022 10 16.0934 N/A
1:55 am 01:55 Clear 43 6 43 6 100 100 NE 5 7 30.16 1021 10 16.0934 N/A
2:15 am 02:15 Clear 41 5 41 5 100 100 NNE 5 7 30.17 1022 10 16.0934 N/A
2:35 am 02:35 Clear 41 5 41 5 100 100 NNE 5 7 30.17 1022 10 16.0934 N/A
2:55 am 02:55 Clear 41 5 41 5 100 100 NNE 5 7 30.16 1021 10 16.0934 N/A
3:15 am 03:15 Clear 39 4 39 4 100 100 N N/A 30.15 1021 10 16.0934 N/A
3:35 am 03:35 Clear 39 4 39 4 100 100 N N/A 30.15 1021 10 16.0934 N/A
3:55 am 03:55 Clear 41 5 41 5 100 100 ENE 3 6 30.14 1021 10 16.0934 N/A
4:15 am 04:15 Clear 39 4 39 4 100 100 NE 3 6 30.13 1020 10 16.0934 N/A
4:35 am 04:35 Clear 39 4 39 4 100 100 N N/A 30.13 1020 10 16.0934 N/A
4:55 am 04:55 Clear 39 4 39 4 100 100 NNE 5 7 30.13 1020 10 16.0934 N/A
5:15 am 05:15 Clear 39 4 39 4 100 100 NNE 5 7 30.13 1020 10 16.0934 N/A
5:35 am 05:35 Clear 37 3 37 3 100 100 N 5 7 30.14 1021 10 16.0934 N/A
5:55 am 05:55 Clear 37 3 37 3 100 100 NNE 5 7 30.13 1020 10 16.0934 N/A
6:15 am 06:15 Clear 36 2 36 2 100 100 N 6 9 30.14 1021 10 16.0934 N/A
6:35 am 06:35 Sunny 37 3 37 3 100 100 N 7 11 30.13 1020 10 16.0934 N/A
6:55 am 06:55 Sunny 37 3 37 3 100 100 NNE 6 9 30.13 1020 10 16.0934 N/A
7:15 am 07:15 Sunny 37 3 37 3 100 100 NNE 5 7 30.13 1020 10 16.0934 N/A
7:35 am 07:35 Sunny 41 5 41 5 100 100 NE 5 7 30.14 1021 10 16.0934 N/A
7:56 am 07:56 Sunny 43 6 43 6 100 100 NE 7 11 30.12 1020 10 16.0934 N/A
8:15 am 08:15 Sunny 45 7 43 6 93 93 ENE 6 9 30.13 1020 10 16.0934 N/A
8:35 am 08:35 Sunny 45 7 45 7 100 100 E 7 11 30.12 1020 10 16.0934 N/A
8:55 am 08:55 Sunny 48 9 45 7 87 87 E 9 15 30.11 1020 10 16.0934 N/A
9:15 am 09:15 Sunny 50 10 45 7 82 82 E 8 13 30.1 1019 10 16.0934 N/A
9:35 am 09:35 Sunny 50 10 46 8 88 88 ENE 10 17 30.09 1019 10 16.0934 N/A
9:55 am 09:55 Sunny 54 12 46 8 77 77 ENE 12 19 30.08 1019 10 16.0934 N/A
10:15 am 10:15 Sunny 54 12 46 8 77 77 E 16 26 30.07 1018 10 16.0934 N/A
10:36 am 10:36 Sunny 55 13 46 8 72 72 E 14 22 30.06 1018 10 16.0934 N/A
10:55 am 10:55 Sunny 55 13 46 8 72 72 E 17 28 30.05 1018 10 16.0934 N/A
11:15 am 11:15 Sunny 57 14 46 8 67 67 E 16 26 30.05 1018 10 16.0934 N/A
11:35 am 11:35 Partly Cloudy 57 14 46 8 67 67 ESE 13 20 30.05 1018 10 16.0934 N/A
11:55 am 11:55 Partly Cloudy 59 15 48 9 68 68 E 15 24 30.03 1017 10 16.0934 N/A
12:15 pm 12:15 Partly Cloudy 59 15 48 9 68 68 E 13 20 30.02 1017 10 16.0934 N/A
12:35 pm 12:35 Partly Cloudy 59 15 48 9 68 68 ENE 15 24 30.02 1017 10 16.0934 N/A
12:55 pm 12:55 Partly Cloudy 59 15 48 9 68 68 E 15 24 30 1016 10 16.0934 N/A
1:15 pm 13:15 Partly Cloudy 59 15 48 9 68 68 E 12 19 29.99 1016 10 16.0934 N/A
1:35 pm 13:35 Mostly Cloudy 61 16 48 9 63 63 E 13 20 29.97 1015 10 16.0934 N/A
1:55 pm 13:55 Cloudy 59 15 48 9 68 68 E 13 20 29.97 1015 10 16.0934 N/A
2:15 pm 14:15 Cloudy 59 15 48 9 68 68 E 9 15 29.97 1015 10 16.0934 N/A
2:35 pm 14:35 Cloudy 59 15 48 9 68 68 E 8 13 29.98 1015 10 16.0934 N/A
2:56 pm 14:56 Cloudy 57 14 48 9 72 72 NE 9 15 29.99 1015 10 16.0934 N/A
3:15 pm 15:15 Cloudy 57 14 48 9 72 72 NE 9 15 29.98 1015 10 16.0934 N/A
3:35 pm 15:35 Cloudy 57 14 48 9 72 72 NE 13 20 29.96 1014 10 16.0934 N/A
3:55 pm 15:55 Cloudy 57 14 48 9 72 72 NE 10 17 29.96 1014 10 16.0934 N/A
4:15 pm 16:15 Cloudy 57 14 50 10 77 77 NE 8 13 29.94 1014 10 16.0934 N/A
4:35 pm 16:35 Cloudy 57 14 48 9 72 72 NE 10 17 29.93 1013 10 16.0934 N/A
4:55 pm 16:55 Cloudy 57 14 48 9 72 72 NE 12 19 29.92 1013 10 16.0934 N/A
5:15 pm 17:15 Cloudy 55 13 50 10 82 82 NNE 14 22 29.89 1012 10 16.0934 N/A
5:35 pm 17:35 Cloudy 55 13 50 10 82 82 NE 13 20 29.89 1012 10 16.0934 N/A
5:55 pm 17:55 Cloudy 54 12 52 11 94 94 NE 15 24 29.88 1012 10 16.0934 N/A
6:16 pm 18:16 Cloudy 52 11 52 11 100 100 NE 13 20 29.88 1012 10 16.0934 N/A
6:35 pm 18:35 Cloudy 52 11 52 11 100 100 NE 14 22 29.87 1011 10 16.0934 N/A
6:55 pm 18:55 Cloudy 52 11 52 11 100 100 NE 15 24 29.88 1012 7 11.26538 N/A
7:15 pm 19:15 Cloudy 50 10 50 10 100 100 NNE 15 24 29.88 1012 4 6.43736 N/A
7:35 pm 19:35 Cloudy 50 10 50 10 100 100 NNE 13 20 29.9 1013 3 4.82802 N/A
7:55 pm 19:55 Cloudy 50 10 50 10 100 100 NNE 15 24 29.89 1012 4 6.43736 N/A
8:15 pm 20:15 Cloudy 50 10 50 10 100 100 NNE 13 20 29.89 1012 4 6.43736 N/A
8:35 pm 20:35 Cloudy 48 9 48 9 100 100 NNE 16 26 29.89 1012 5 8.0467 N/A
8:55 pm 20:55 Cloudy 48 9 48 9 100 100 NE 21 33 29.89 1012 7 11.26538 N/A
9:15 pm 21:15 Cloudy 46 8 46 8 100 100 NE 20 31 29.9 1012 10 16.0934 N/A
9:35 pm 21:35 Cloudy 46 8 46 8 100 100 NE 18 30 29.89 1012 10 16.0934 N/A
9:56 pm 21:56 Cloudy 45 7 45 7 100 100 NE 15 24 29.89 1012 10 16.0934 N/A
10:15 pm 22:15 Cloudy 45 7 45 7 100 100 NE 15 24 29.88 1012 10 16.0934 N/A
10:35 pm 22:35 Cloudy 45 7 45 7 100 100 NE 15 24 29.88 1012 10 16.0934 N/A
10:55 pm 22:55 Cloudy 45 7 45 7 100 100 NE 13 20 29.88 1012 10 16.0934 N/A
11:15 pm 23:15 Cloudy 45 7 45 7 100 100 NE 13 20 29.89 1012 10 16.0934 N/A
11:35 pm 23:35 Cloudy 45 7 45 7 100 100 NNE 10 17 29.88 1012 10 16.0934 N/A
11:55 pm 23:55 Cloudy 43 6 43 6 100 100 NE 15 24 29.86 1011 10 16.0934 N/A

Powered by AerisWeather